Overview Statistics Trail Chart Weather Telemetry Raw packets
 

This is the latest recevied weather packets stored in our database for station/object K5KVN. If no packets are shown the sender has not sent any weather packets the latest 10 day(s).

<< 1 2 3 4 5 >>
Time Temp. Humidity Pressure Rain* Wind** Luminosity Snow
1788670770 26.67° C 73% 1014.6 hPa 0 mm - - -
1788670172 26.67° C 74% 1014.6 hPa 0 mm - - -
1788669570 26.67° C 73% 1014.6 hPa 0 mm - - -
1788668970 26.67° C 73% 1014.6 hPa 0 mm - - -
1788668431 26.67° C 72% 1014.6 hPa 0 mm - - -
1788667770 26.67° C 72% 1014.6 hPa 0 mm - - -
1788667169 27.22° C 72% 1014.5 hPa 0 mm - - -
1788666569 27.22° C 73% 1014.6 hPa 0 mm - - -
1788665968 27.22° C 73% 1014.5 hPa 0 mm - - -
1788665367 27.78° C 72% 1014.7 hPa 0 mm - - -
1788664766 27.78° C 70% 1014.6 hPa 0 mm - - -
1788664166 27.78° C 69% 1014.6 hPa 0 mm - - -
1788663562 28.33° C 69% 1014.5 hPa 0 mm - - -
1788662966 28.33° C 67% 1014.6 hPa 0 mm - - -
1788662419 28.89° C 66% 1014.6 hPa 0 mm - - -
1788661758 28.89° C 66% 1014.4 hPa 0 mm - - -
1788661218 29.44° C 64% 1014.3 hPa 0 mm - - -
1788660559 29.44° C 62% 1014 hPa 0 mm - - -
1788659958 30° C 61% 1013.8 hPa 0 mm - - -
1788659358 30.56° C 59% 1013.7 hPa 0 mm - - -
1788658756 30.56° C 58% 1013.5 hPa 0 mm - - -
1788658155 31.67° C 56% 1013.4 hPa 0 mm - - -
1788657556 31.67° C 54% 1013.3 hPa 0 mm - - -
1788656956 32.78° C 53% 1013.2 hPa 0 mm - - -
1788656356 33.33° C 51% 1013.1 hPa 0 mm - - -

* Rain latest hour (hover to see other rain measurements)
** Current wind speed in m/s (hover to see current wind gust speed)